shoulder
new_line
new_line
first
second
third
Al di la della Luna; Beyond the Moon; Astrophotography; Astrofotografia; Danilo Pivato
 
 
         
         
2015

Orbital Elements

Epoch 2014 Dec. 9.0 TT = JDT 2457000.5
T 2014 Dec. 17.79004 TT                                                       MPCW
q   2.4753684            (2000.0)                            P                  Q
n   0.14362369     Peri.  167.74953       -0.09941246     -0.97613657
a   3.6112038      Node   287.71431     +0.89497772     -0.00291439
e   0.3145310      Incl.   11.69349     +0.43489313     -0.21713800
P   6.86
 
         
         
2015.02.18
2015.03.12
     
         
         
         
         
         
         

 

       
 
Since: 01/01/2004
 
       
 
Since: 01/11/2010